Location: ??? ????
(38.0580°N, 23.1536°E)
Time: 14:09:10
(UTC+00:00)

Cosmos 1980 Rocket - Pass Details

Date: 13 December 2025
Orbit: 830 x 847 km, 71.0° (Epoch: 17 January)

Event Time Altitude Azimuth Distance (km) Brightness Sun altitude
Rises 15:52:18 0° 196° (SSW) 3,385 6.0 -8.6°
Reaches altitude 10° 15:54:45 10° 195° (SSW) 2,452 5.2 -9.1°
Maximum altitude 16:00:22 77° 110° (ESE) 865 2.2 -10.1°
Drops below altitude 10° 16:05:59 10° 25° (NNE) 2,456 4.2 -11.1°
Enters shadow 16:07:20 - 25° (NNE) 2,968 4.6 -11.4°
